Location: Unspecified
(0.0000°N, 0.0000°E)
Time: 16:23:47
(UTC+00:00)

Courier 1B Rocket - Pass Details

Date: 20 November 2019
Orbit: 920 x 1202 km, 28.2° (Epoch: 12 December)

Event Time Altitude Azimuth Distance (km) Brightness Sun altitude
Rises 22:55:11 0° 291° (WNW) 4,088 - -66.7°
Reaches altitude 10° 22:58:07 10° 287° (WNW) 3,115 - -67.0°
Maximum altitude 23:05:43 57° 210° (SSW) 1,344 - -67.9°
Drops below altitude 10° 23:12:58 10° 133° (SE) 2,975 - -68.6°
Sets 23:15:43 0° 129° (SE) 3,894 - -68.9°
